Time,TemperatureF,DewpointF,PressureIn,WindDirection,WindDirectionDegrees,WindSpeedMPH,WindSpeedGustMPH,Humidity,HourlyPrecipIn,Conditions,Clouds,dailyrainin,SoftwareType,DateUTC
2013-03-05 00:02:00,30.2,16.4,29.90,West,274,4.0,5.0,56,0.00,,SKC,0.00,VWS V12.07,2013-03-05 08:02:00,
2013-03-05 00:12:00,30.7,16.5,29.90,West,275,3.0,5.0,55,0.00,,SKC,0.00,VWS V12.07,2013-03-05 08:12:00,
2013-03-05 00:22:00,30.9,16.6,29.89,West,275,3.0,6.0,55,0.00,,SKC,0.00,VWS V12.07,2013-03-05 08:22:00,
2013-03-05 00:32:00,32.0,16.4,29.90,West,275,4.0,6.0,52,0.00,,SKC,0.00,VWS V12.07,2013-03-05 08:32:00,
2013-03-05 00:42:00,31.9,16.3,29.92,West,274,3.0,6.0,52,0.00,,SKC,0.00,VWS V12.07,2013-03-05 08:42:00,
2013-03-05 00:52:00,30.6,15.9,29.91,West,275,3.0,6.0,54,0.00,,SKC,0.00,VWS V12.07,2013-03-05 08:52:00,
2013-03-05 01:02:00,30.7,16.5,29.89,West,275,3.0,5.0,55,0.00,,SKC,0.00,VWS V12.07,2013-03-05 09:02:00,
2013-03-05 01:12:00,30.1,16.3,29.90,West,275,3.0,5.0,56,0.00,,SKC,0.00,VWS V12.07,2013-03-05 09:12:00,
2013-03-05 01:22:00,29.1,16.2,29.90,West,262,2.0,7.0,58,0.00,,SKC,0.00,VWS V12.07,2013-03-05 09:22:00,
2013-03-05 01:32:00,28.8,15.9,29.90,West,262,4.0,5.0,58,0.00,,SKC,0.00,VWS V12.07,2013-03-05 09:32:00,
2013-03-05 01:42:00,28.4,16.3,29.90,WSW,255,4.0,7.0,60,0.00,,SKC,0.00,VWS V12.07,2013-03-05 09:42:00,
2013-03-05 01:52:00,29.1,16.6,29.91,WSW,254,1.0,7.0,59,0.00,,SKC,0.00,VWS V12.07,2013-03-05 09:52:00,
2013-03-05 02:02:00,29.2,16.7,29.89,WSW,254,3.0,3.0,59,0.00,,SKC,0.00,VWS V12.07,2013-03-05 10:02:00,
2013-03-05 02:12:00,29.0,16.5,29.89,WSW,254,2.0,5.0,59,0.00,,SKC,0.00,VWS V12.07,2013-03-05 10:12:00,
2013-03-05 02:22:00,29.4,16.5,29.90,WSW,254,3.0,5.0,58,0.00,,SKC,0.00,VWS V12.07,2013-03-05 10:22:00,
2013-03-05 02:32:00,30.2,16.8,29.89,WSW,254,2.0,3.0,57,0.00,,SKC,0.00,VWS V12.07,2013-03-05 10:32:00,
2013-03-05 02:42:00,30.1,16.3,29.88,WSW,254,2.0,4.0,56,0.00,,SKC,0.00,VWS V12.07,2013-03-05 10:42:00,
2013-03-05 02:52:00,29.6,16.6,29.87,WSW,254,2.0,5.0,58,0.00,,SKC,0.00,VWS V12.07,2013-03-05 10:52:00,
2013-03-05 03:02:00,28.9,16.4,29.87,WSW,252,5.0,7.0,59,0.00,,SKC,0.00,VWS V12.07,2013-03-05 11:02:00,
2013-03-05 03:12:00,28.1,16.4,29.87,WSW,251,3.0,7.0,61,0.00,,SKC,0.00,VWS V12.07,2013-03-05 11:12:00,
2013-03-05 03:22:00,27.7,16.4,29.86,WSW,251,4.0,7.0,62,0.00,,SKC,0.00,VWS V12.07,2013-03-05 11:22:00,
2013-03-05 03:32:00,27.9,17.0,29.87,WSW,251,5.0,5.0,63,0.00,,SKC,0.00,VWS V12.07,2013-03-05 11:32:00,
2013-03-05 03:42:00,28.3,17.0,29.87,WSW,251,4.0,6.0,62,0.00,,SKC,0.00,VWS V12.07,2013-03-05 11:42:00,
2013-03-05 03:52:00,28.7,17.3,29.86,WSW,238,6.0,8.0,62,0.00,,SKC,0.00,VWS V12.07,2013-03-05 11:52:00,
2013-03-05 04:02:00,28.3,17.0,29.85,WSW,238,7.0,7.0,62,0.00,,SKC,0.00,VWS V12.07,2013-03-05 12:02:00,
2013-03-05 04:12:00,29.5,17.3,29.86,SW,235,5.0,7.0,60,0.00,,SKC,0.00,VWS V12.07,2013-03-05 12:12:00,
2013-03-05 04:22:00,28.2,17.6,29.86,SW,216,7.0,9.0,64,0.00,,SKC,0.00,VWS V12.07,2013-03-05 12:22:00,
2013-03-05 04:32:00,28.3,18.1,29.85,SW,215,2.0,7.0,65,0.00,,SKC,0.00,VWS V12.07,2013-03-05 12:32:00,
2013-03-05 04:42:00,28.5,17.9,29.86,SW,215,4.0,7.0,64,0.00,,SKC,0.00,VWS V12.07,2013-03-05 12:42:00,
2013-03-05 04:52:00,28.4,17.8,29.85,SW,215,4.0,7.0,64,0.00,,SKC,0.00,VWS V12.07,2013-03-05 12:52:00,
2013-03-05 05:02:00,28.2,18.3,29.84,SW,215,7.0,8.0,66,0.00,,SKC,0.00,VWS V12.07,2013-03-05 13:02:00,
2013-03-05 05:12:00,28.2,18.3,29.84,SW,215,0.0,8.0,66,0.00,,SKC,0.00,VWS V12.07,2013-03-05 13:12:00,
2013-03-05 05:22:00,27.6,18.4,29.84,SW,215,0.0,8.0,68,0.00,,SKC,0.00,VWS V12.07,2013-03-05 13:22:00,
2013-03-05 05:32:00,27.9,19.1,29.83,SW,215,1.0,3.0,69,0.00,,SKC,0.00,VWS V12.07,2013-03-05 13:32:00,
2013-03-05 05:42:00,28.2,19.0,29.84,SW,215,0.0,4.0,68,0.00,,SKC,0.00,VWS V12.07,2013-03-05 13:42:00,
2013-03-05 05:52:00,28.8,19.6,29.82,SW,215,2.0,5.0,68,0.00,,SKC,0.00,VWS V12.07,2013-03-05 13:52:00,
2013-03-05 06:02:00,28.6,19.7,29.83,SW,226,2.0,6.0,69,0.00,,SKC,0.00,VWS V12.07,2013-03-05 14:02:00,
2013-03-05 06:12:00,28.8,19.6,29.83,SW,227,0.0,6.0,68,0.00,,SKC,0.00,VWS V12.07,2013-03-05 14:12:00,
2013-03-05 06:22:00,29.1,19.5,29.81,SW,226,4.0,7.0,67,0.00,,SKC,0.00,VWS V12.07,2013-03-05 14:22:00,
2013-03-05 06:32:00,29.4,19.5,29.82,WSW,252,4.0,6.0,66,0.00,,SKC,0.00,VWS V12.07,2013-03-05 14:32:00,
2013-03-05 06:42:00,29.6,18.9,29.81,West,260,4.0,9.0,64,0.00,,SKC,0.00,VWS V12.07,2013-03-05 14:42:00,
2013-03-05 06:52:00,29.9,19.2,29.81,West,260,3.0,9.0,64,0.00,,SKC,0.00,VWS V12.07,2013-03-05 14:52:00,
2013-03-05 07:02:00,29.8,19.5,29.81,West,260,2.0,4.0,65,0.00,,SKC,0.00,VWS V12.07,2013-03-05 15:02:00,
2013-03-05 07:12:00,30.1,20.1,29.81,West,260,3.0,5.0,66,0.00,,SKC,0.00,VWS V12.07,2013-03-05 15:12:00,
2013-03-05 07:22:00,30.0,20.0,29.82,West,260,2.0,5.0,66,0.00,,SKC,0.00,VWS V12.07,2013-03-05 15:22:00,
2013-03-05 07:32:00,30.0,20.0,29.82,West,260,3.0,5.0,66,0.00,,SKC,0.00,VWS V12.07,2013-03-05 15:32:00,
2013-03-05 07:42:00,30.0,20.0,29.81,West,260,1.0,7.0,66,0.00,,SKC,0.00,VWS V12.07,2013-03-05 15:42:00,
2013-03-05 07:52:00,29.9,20.3,29.81,West,260,1.0,7.0,67,0.00,,SKC,0.00,VWS V12.07,2013-03-05 15:52:00,
2013-03-05 08:02:00,30.0,20.0,29.80,West,260,2.0,6.0,66,0.00,,SKC,0.00,VWS V12.07,2013-03-05 16:02:00,
2013-03-05 08:12:00,30.0,18.2,29.80,WNW,287,7.0,9.0,61,0.00,,SKC,0.00,VWS V12.07,2013-03-05 16:12:00,
2013-03-05 08:22:00,30.3,18.5,29.80,WNW,288,0.0,9.0,61,0.00,,SKC,0.00,VWS V12.07,2013-03-05 16:22:00,
2013-03-05 08:32:00,30.7,18.5,29.81,WNW,288,5.0,5.0,60,0.00,,SKC,0.00,VWS V12.07,2013-03-05 16:32:00,
2013-03-05 08:42:00,30.8,18.6,29.79,WNW,288,4.0,6.0,60,0.00,,SKC,0.00,VWS V12.07,2013-03-05 16:42:00,
2013-03-05 08:52:00,30.8,18.6,29.81,WNW,292,4.0,10.0,60,0.00,,SKC,0.00,VWS V12.07,2013-03-05 16:52:00,
2013-03-05 09:02:00,31.0,18.8,29.80,WNW,292,1.0,5.0,60,0.00,,SKC,0.00,VWS V12.07,2013-03-05 17:02:00,
2013-03-05 09:12:00,31.4,18.7,29.79,WNW,292,0.0,5.0,59,0.00,,SKC,0.00,VWS V12.07,2013-03-05 17:12:00,
2013-03-05 09:22:00,32.1,19.4,29.79,WNW,292,4.0,5.0,59,0.00,,SKC,0.00,VWS V12.07,2013-03-05 17:22:00,
2013-03-05 09:32:00,32.5,19.4,29.79,WNW,292,0.0,0.0,58,0.00,,SKC,0.00,VWS V12.07,2013-03-05 17:32:00,
2013-03-05 09:42:00,33.4,20.2,29.79,WNW,292,0.0,0.0,58,0.00,,SKC,0.00,VWS V12.07,2013-03-05 17:42:00,
2013-03-05 09:52:00,34.3,20.7,29.79,WNW,292,0.0,0.0,57,0.00,,SKC,0.00,VWS V12.07,2013-03-05 17:52:00,
2013-03-05 10:02:00,34.6,21.0,29.79,WNW,293,0.0,3.0,57,0.00,,SKC,0.00,VWS V12.07,2013-03-05 18:02:00,
2013-03-05 10:12:00,35.5,21.4,29.78,NW,320,4.0,8.0,56,0.00,,SKC,0.00,VWS V12.07,2013-03-05 18:12:00,
2013-03-05 10:22:00,36.0,21.4,29.78,NNW,327,2.0,8.0,55,0.00,,SKC,0.00,VWS V12.07,2013-03-05 18:22:00,
2013-03-05 10:32:00,36.1,22.4,29.78,NNW,327,0.0,3.0,57,0.00,,SKC,0.00,VWS V12.07,2013-03-05 18:32:00,
2013-03-05 10:42:00,36.3,23.0,29.78,NNW,327,1.0,3.0,58,0.00,,SKC,0.00,VWS V12.07,2013-03-05 18:42:00,
2013-03-05 10:52:00,36.5,24.3,29.77,NNW,327,2.0,5.0,61,0.00,,SKC,0.00,VWS V12.07,2013-03-05 18:52:00,
2013-03-05 11:12:00,36.4,23.9,29.78,NNW,331,2.0,6.0,60,0.00,,SKC,0.00,VWS V12.07,2013-03-05 19:12:00,
2013-03-05 11:22:00,36.4,24.2,29.78,NNW,337,1.0,6.0,61,0.00,,SKC,0.00,VWS V12.07,2013-03-05 19:22:00,
2013-03-05 11:32:00,36.1,25.5,29.77,NNW,345,4.0,7.0,65,0.01,,SKC,0.01,VWS V12.07,2013-03-05 19:32:00,
2013-03-05 11:42:00,35.8,26.6,29.77,NNW,345,0.0,7.0,69,0.01,,SKC,0.01,VWS V12.07,2013-03-05 19:42:00,
2013-03-05 11:52:00,36.1,27.3,29.76,North,0,4.0,7.0,70,0.01,,SKC,0.01,VWS V12.07,2013-03-05 19:52:00,
2013-03-05 12:02:00,36.6,27.8,29.76,North,8,5.0,7.0,70,0.01,,SKC,0.01,VWS V12.07,2013-03-05 20:02:00,
2013-03-05 12:12:00,37.7,28.8,29.77,NNE,19,5.0,7.0,70,0.01,,SKC,0.01,VWS V12.07,2013-03-05 20:12:00,
2013-03-05 12:22:00,38.7,29.4,29.76,NNE,19,5.0,7.0,69,0.01,,SKC,0.01,VWS V12.07,2013-03-05 20:22:00,
2013-03-05 12:32:00,39.5,30.5,29.76,North,11,5.0,6.0,70,0.00,,SKC,0.01,VWS V12.07,2013-03-05 20:32:00,
2013-03-05 12:42:00,40.0,30.7,29.76,North,10,2.0,7.0,69,0.00,,SKC,0.01,VWS V12.07,2013-03-05 20:42:00,
2013-03-05 12:52:00,39.7,28.9,29.77,NNE,14,7.0,12.0,65,0.01,,SKC,0.02,VWS V12.07,2013-03-05 20:52:00,
2013-03-05 13:02:00,39.8,27.9,29.77,North,355,5.0,8.0,62,0.01,,SKC,0.02,VWS V12.07,2013-03-05 21:02:00,
2013-03-05 13:12:00,40.1,28.1,29.77,North,0,6.0,8.0,62,0.01,,SKC,0.02,VWS V12.07,2013-03-05 21:12:00,
2013-03-05 13:22:00,40.7,28.3,29.76,NNE,25,5.0,8.0,61,0.01,,SKC,0.02,VWS V12.07,2013-03-05 21:22:00,
2013-03-05 13:32:00,40.5,26.9,29.76,ENE,78,9.0,10.0,58,0.01,,SKC,0.02,VWS V12.07,2013-03-05 21:32:00,
2013-03-05 13:42:00,40.7,27.1,29.77,ENE,60,3.0,10.0,58,0.01,,SKC,0.02,VWS V12.07,2013-03-05 21:42:00,
2013-03-05 13:52:00,41.2,26.7,29.75,NE,40,7.0,10.0,56,0.01,,SKC,0.02,VWS V12.07,2013-03-05 21:52:00,
2013-03-05 14:02:00,41.4,26.9,29.75,NNE,30,9.0,10.0,56,0.00,,SKC,0.02,VWS V12.07,2013-03-05 22:02:00,
2013-03-05 14:12:00,41.7,27.2,29.76,NNE,24,4.0,10.0,56,0.00,,SKC,0.02,VWS V12.07,2013-03-05 22:12:00,
2013-03-05 14:22:00,41.0,25.6,29.75,North,351,7.0,11.0,54,0.00,,SKC,0.02,VWS V12.07,2013-03-05 22:22:00,
2013-03-05 14:32:00,40.7,25.4,29.75,NNW,348,7.0,10.0,54,0.00,,SKC,0.02,VWS V12.07,2013-03-05 22:32:00,
2013-03-05 14:42:00,40.4,25.1,29.76,NNW,344,9.0,11.0,54,0.00,,SKC,0.02,VWS V12.07,2013-03-05 22:42:00,
2013-03-05 14:52:00,40.1,25.2,29.74,NNW,335,8.0,12.0,55,0.00,,SKC,0.02,VWS V12.07,2013-03-05 22:52:00,
2013-03-05 15:02:00,39.8,25.0,29.75,NNW,333,7.0,14.0,55,0.00,,SKC,0.02,VWS V12.07,2013-03-05 23:02:00,
2013-03-05 15:12:00,39.2,24.4,29.77,North,0,8.0,14.0,55,0.00,,SKC,0.02,VWS V12.07,2013-03-05 23:12:00,
2013-03-05 15:22:00,38.7,24.4,29.75,North,357,7.0,14.0,56,0.00,,SKC,0.02,VWS V12.07,2013-03-05 23:22:00,
2013-03-05 15:32:00,38.3,24.4,29.76,North,357,9.0,9.0,57,0.00,,SKC,0.02,VWS V12.07,2013-03-05 23:32:00,
2013-03-05 15:42:00,38.0,24.1,29.76,North,0,5.0,12.0,57,0.00,,SKC,0.02,VWS V12.07,2013-03-05 23:42:00,
2013-03-05 15:52:00,37.8,24.4,29.76,North,355,0.0,12.0,58,0.00,,SKC,0.02,VWS V12.07,2013-03-05 23:52:00,
2013-03-05 16:02:00,37.8,24.4,29.76,North,1,4.0,7.0,58,0.00,,SKC,0.02,VWS V12.07,2013-03-06 00:02:00,
2013-03-05 16:12:00,37.5,24.9,29.76,North,2,3.0,9.0,60,0.00,,SKC,0.02,VWS V12.07,2013-03-06 00:12:00,
2013-03-05 16:22:00,37.0,25.2,29.76,North,1,4.0,9.0,62,0.00,,SKC,0.02,VWS V12.07,2013-03-06 00:22:00,
2013-03-05 16:32:00,36.5,25.5,29.76,North,2,7.0,7.0,64,0.00,,SKC,0.02,VWS V12.07,2013-03-06 00:32:00,
2013-03-05 16:42:00,35.8,26.6,29.76,North,2,5.0,7.0,69,0.00,,SKC,0.02,VWS V12.07,2013-03-06 00:42:00,
2013-03-05 16:52:00,35.0,26.9,29.75,North,351,5.0,7.0,72,0.00,,SKC,0.02,VWS V12.07,2013-03-06 00:52:00,
2013-03-05 17:03:00,34.1,27.3,29.76,North,353,1.0,7.0,76,0.00,,SKC,0.02,VWS V12.07,2013-03-06 01:03:00,
2013-03-05 17:12:00,33.6,27.8,29.75,North,353,4.0,7.0,79,0.00,,SKC,0.02,VWS V12.07,2013-03-06 01:12:00,
2013-03-05 17:22:00,33.1,27.6,29.75,North,353,2.0,7.0,80,0.00,,SKC,0.02,VWS V12.07,2013-03-06 01:22:00,
2013-03-05 17:32:00,32.8,27.6,29.75,North,353,2.0,3.0,81,0.00,,SKC,0.02,VWS V12.07,2013-03-06 01:32:00,
2013-03-05 17:42:00,32.4,27.5,29.74,North,353,0.0,3.0,82,0.00,,SKC,0.02,VWS V12.07,2013-03-06 01:42:00,
2013-03-05 17:52:00,32.5,27.9,29.76,North,353,2.0,3.0,83,0.00,,SKC,0.02,VWS V12.07,2013-03-06 01:52:00,
2013-03-05 18:02:00,32.4,27.8,29.74,North,353,1.0,3.0,83,0.00,,SKC,0.02,VWS V12.07,2013-03-06 02:02:00,
2013-03-05 18:12:00,32.4,28.1,29.74,North,353,2.0,3.0,84,0.00,,SKC,0.02,VWS V12.07,2013-03-06 02:12:00,
2013-03-05 18:22:00,32.3,28.3,29.74,North,353,3.0,5.0,85,0.00,,SKC,0.02,VWS V12.07,2013-03-06 02:22:00,
2013-03-05 18:32:00,32.3,28.3,29.74,North,353,4.0,5.0,85,0.00,,SKC,0.02,VWS V12.07,2013-03-06 02:32:00,
2013-03-05 18:42:00,32.3,28.6,29.74,North,349,3.0,6.0,86,0.00,,SKC,0.02,VWS V12.07,2013-03-06 02:42:00,
2013-03-05 18:52:00,32.3,28.6,29.74,NNW,345,2.0,6.0,86,0.00,,SKC,0.02,VWS V12.07,2013-03-06 02:52:00,
2013-03-05 19:02:00,32.3,28.6,29.74,NNW,345,2.0,3.0,86,0.00,,SKC,0.02,VWS V12.07,2013-03-06 03:02:00,
2013-03-05 19:12:00,32.4,28.7,29.73,North,354,3.0,5.0,86,0.00,,SKC,0.02,VWS V12.07,2013-03-06 03:12:00,
2013-03-05 19:22:00,32.6,29.2,29.73,North,354,2.0,5.0,87,0.00,,SKC,0.02,VWS V12.07,2013-03-06 03:22:00,
2013-03-05 19:32:00,33.0,29.3,29.73,North,354,4.0,4.0,86,0.00,,SKC,0.02,VWS V12.07,2013-03-06 03:32:00,
2013-03-05 19:42:00,33.0,29.3,29.73,North,354,2.0,5.0,86,0.00,,SKC,0.02,VWS V12.07,2013-03-06 03:42:00,
2013-03-05 19:52:00,33.1,29.4,29.72,North,354,0.0,5.0,86,0.00,,SKC,0.02,VWS V12.07,2013-03-06 03:52:00,
2013-03-05 20:02:00,33.1,29.4,29.71,North,354,0.0,3.0,86,0.00,,SKC,0.02,VWS V12.07,2013-03-06 04:02:00,
2013-03-05 20:12:00,33.2,29.8,29.71,North,354,1.0,3.0,87,0.00,,SKC,0.02,VWS V12.07,2013-03-06 04:12:00,
2013-03-05 20:22:00,33.3,29.9,29.71,North,354,2.0,5.0,87,0.00,,SKC,0.02,VWS V12.07,2013-03-06 04:22:00,
2013-03-05 20:32:00,33.4,29.7,29.70,North,354,2.0,3.0,86,0.00,,SKC,0.02,VWS V12.07,2013-03-06 04:32:00,
2013-03-05 20:42:00,33.4,29.7,29.72,North,354,0.0,3.0,86,0.00,,SKC,0.02,VWS V12.07,2013-03-06 04:42:00,
2013-03-05 20:52:00,33.4,29.7,29.71,North,354,0.0,3.0,86,0.00,,SKC,0.02,VWS V12.07,2013-03-06 04:52:00,
2013-03-05 21:02:00,33.0,29.3,29.70,North,354,0.0,1.0,86,0.00,,SKC,0.02,VWS V12.07,2013-03-06 05:02:00,
2013-03-05 21:12:00,32.5,28.8,29.69,North,354,4.0,5.0,86,0.00,,SKC,0.02,VWS V12.07,2013-03-06 05:12:00,
2013-03-05 21:22:00,32.3,28.6,29.69,North,354,0.0,5.0,86,0.00,,SKC,0.02,VWS V12.07,2013-03-06 05:22:00,
2013-03-05 21:32:00,32.2,28.5,29.69,North,354,2.0,5.0,86,0.00,,SKC,0.02,VWS V12.07,2013-03-06 05:32:00,
2013-03-05 21:42:00,32.2,28.8,29.70,North,354,3.0,6.0,87,0.00,,SKC,0.02,VWS V12.07,2013-03-06 05:42:00,
2013-03-05 21:52:00,32.2,28.8,29.68,North,354,1.0,7.0,87,0.00,,SKC,0.02,VWS V12.07,2013-03-06 05:52:00,
2013-03-05 22:02:00,32.2,28.5,29.68,North,354,0.0,3.0,86,0.00,,SKC,0.02,VWS V12.07,2013-03-06 06:02:00,
2013-03-05 22:12:00,32.2,28.8,29.67,North,354,4.0,5.0,87,0.00,,SKC,0.02,VWS V12.07,2013-03-06 06:12:00,
2013-03-05 22:22:00,32.3,28.9,29.67,North,356,3.0,6.0,87,0.00,,SKC,0.02,VWS V12.07,2013-03-06 06:22:00,
2013-03-05 22:32:00,32.1,28.7,29.68,North,1,2.0,6.0,87,0.00,,SKC,0.02,VWS V12.07,2013-03-06 06:32:00,
2013-03-05 22:42:00,32.3,28.6,29.67,North,1,0.0,6.0,86,0.00,,SKC,0.02,VWS V12.07,2013-03-06 06:42:00,
2013-03-05 22:52:00,32.2,28.5,29.67,North,1,2.0,6.0,86,0.00,,SKC,0.02,VWS V12.07,2013-03-06 06:52:00,
2013-03-05 23:03:00,32.0,28.0,29.68,North,1,0.0,0.0,85,0.00,,SKC,0.02,VWS V12.07,2013-03-06 07:03:00,
2013-03-05 23:12:00,31.9,27.9,29.66,North,1,2.0,5.0,85,0.00,,SKC,0.02,VWS V12.07,2013-03-06 07:12:00,
2013-03-05 23:22:00,31.4,27.4,29.65,North,1,5.0,7.0,85,0.00,,SKC,0.02,VWS V12.07,2013-03-06 07:22:00,
2013-03-05 23:32:00,30.8,26.8,29.65,North,1,3.0,7.0,85,0.00,,SKC,0.02,VWS V12.07,2013-03-06 07:32:00,
2013-03-05 23:42:00,30.6,26.9,29.66,North,1,0.0,7.0,86,0.00,,SKC,0.02,VWS V12.07,2013-03-06 07:42:00,
2013-03-05 23:52:00,30.5,26.8,29.65,North,1,5.0,7.0,86,0.00,,SKC,0.02,VWS V12.07,2013-03-06 07:52:00,